,,Stat5,,Stat1,,Stat2,,Stat3,,Stat4,,Wind1,,Wind1,
time,status,PA1M_AVG,status,PR1M_SUM,status,RH1M_AVG,status,SR1M_AVG,status,TA1M_AVG,status,W1dAve1m,status,W1sAve1m,
2001-02-13, 00:00:01,VALID,917.363,VALID,0,VALID,96.4894,VALID,0,VALID,20.2147,VALID,53,VALID,0.418069,
2001-02-13, 00:01:01,VALID,917.354,VALID,0,VALID,96.441,VALID,-0.0509425,VALID,20.1948,VALID,69,VALID,0.646205,
2001-02-13, 00:02:00,VALID,917.35,VALID,0,VALID,96.3787,VALID,-0.0169808,VALID,20.1821,VALID,50,VALID,0.607955,
2001-02-13, 00:03:00,VALID,917.34,VALID,0,VALID,96.5758,VALID,-0.0339617,VALID,20.1756,VALID,46,VALID,0.186867,
2001-02-13, 00:04:00,VALID,917.338,VALID,0,VALID,96.6814,VALID,-0.0509425,VALID,20.1627,VALID,60,VALID,0.015408,
2001-02-13, 00:05:00,VALID,917.346,VALID,0,VALID,96.7208,VALID,-0.0169808,VALID,20.1565,VALID,105,VALID,0.336965,
2001-02-13, 00:06:00,VALID,917.343,VALID,0,VALID,96.5771,VALID,0,VALID,20.1436,VALID,94,VALID,0.138725,
2001-02-13, 00:07:00,VALID,917.343,VALID,0,VALID,96.6432,VALID,-0.0339617,VALID,20.1239,VALID,56,VALID,0.0986607,
2001-02-13, 00:08:00,VALID,917.35,VALID,0,VALID,96.7462,VALID,-0.0509425,VALID,20.117,VALID,57,VALID,0.0106908,
2001-02-13, 00:09:00,VALID,917.343,VALID,0,VALID,96.7933,VALID,-0.0169808,VALID,20.1364,VALID,65,VALID,0.0791807,
2001-02-13, 00:10:01,VALID,917.333,VALID,0,VALID,96.7449,VALID,-0.0849042,VALID,20.1433,VALID,65,VALID,0,
2001-02-13, 00:11:00,VALID,917.328,VALID,0,VALID,96.8225,VALID,-0.0679233,VALID,20.1433,VALID,65,VALID,0.000844595,
2001-02-13, 00:12:00,VALID,917.343,VALID,0,VALID,96.9026,VALID,-0.0169808,VALID,20.1433,VALID,65,VALID,0,
2001-02-13, 00:13:01,VALID,917.343,VALID,0,VALID,96.937,VALID,-0.0169808,VALID,20.1401,VALID,65,VALID,0,
2001-02-13, 00:14:00,VALID,917.348,VALID,0,VALID,97.0094,VALID,-0.0169808,VALID,20.1309,VALID,65,VALID,0.0326705,
2001-02-13, 00:15:00,VALID,917.368,VALID,0,VALID,97.1086,VALID,0,VALID,20.1083,VALID,21,VALID,0.130744,
2001-02-13, 00:16:00,VALID,917.377,VALID,0,VALID,97.2498,VALID,-0.0339617,VALID,20.0914,VALID,13,VALID,0,
2001-02-13, 00:17:00,VALID,917.368,VALID,0,VALID,97.3248,VALID,-0.0169808,VALID,20.0886,VALID,13,VALID,0,
2001-02-13, 00:18:00,VALID,917.362,VALID,0,VALID,97.3795,VALID,-0.0509425,VALID,20.0916,VALID,72,VALID,0.226985,
2001-02-13, 00:19:00,VALID,917.369,VALID,0,VALID,97.4024,VALID,-0.0339617,VALID,20.0916,VALID,83,VALID,0.0169271,
2001-02-13, 00:20:00,VALID,917.348,VALID,0,VALID,97.2943,VALID,-0.0169808,VALID,20.0785,VALID,90,VALID,0,
2001-02-13, 00:21:00,VALID,917.337,VALID,0,VALID,97.246,VALID,-0.0679233,VALID,20.0854,VALID,91,VALID,0,
2001-02-13, 00:22:00,VALID,917.317,VALID,0,VALID,97.2841,VALID,-0.0169808,VALID,20.0727,VALID,91,VALID,0,
2001-02-13, 00:23:00,VALID,917.285,VALID,0,VALID,97.3604,VALID,0,VALID,20.0653,VALID,92,VALID,0,
2001-02-13, 00:24:00,VALID,917.246,VALID,0,VALID,97.3858,VALID,0,VALID,20.0722,VALID,114,VALID,0.429688,
2001-02-13, 00:25:01,VALID,917.222,VALID,0,VALID,97.4316,VALID,0,VALID,20.0553,VALID,119,VALID,0.120066,
2001-02-13, 00:26:00,VALID,917.217,VALID,0,VALID,97.424,VALID,0,VALID,20.0785,VALID,138,VALID,0.0586993,
2001-02-13, 00:27:00,VALID,917.197,VALID,0,VALID,97.3858,VALID,-0.0169808,VALID,20.0879,VALID,277,VALID,0.185491,
2001-02-13, 00:28:01,VALID,917.175,VALID,0,VALID,97.3884,VALID,0.0169808,VALID,20.0911,VALID,277,VALID,0,
2001-02-13, 00:29:00,VALID,917.166,VALID,0,VALID,97.3553,VALID,0,VALID,20.0941,VALID,50,VALID,0.186553,
2001-02-13, 00:30:00,VALID,917.13,VALID,0,VALID,97.2727,VALID,0.0169808,VALID,20.0879,VALID,94,VALID,0.223346,
2001-02-13, 00:31:00,VALID,917.093,VALID,0,VALID,97.2256,VALID,0.0339617,VALID,20.0978,VALID,91,VALID,0.00401182,
2001-02-13, 00:32:00,VALID,917.059,VALID,0,VALID,97.1658,VALID,0,VALID,20.0881,VALID,91,VALID,0.139358,
2001-02-13, 00:33:00,VALID,917.013,VALID,0,VALID,97.0896,VALID,0,VALID,20.0817,VALID,101,VALID,0.770059,
2001-02-13, 00:34:00,VALID,916.983,VALID,0,VALID,97.0603,VALID,0,VALID,20.0655,VALID,94,VALID,0.246962,
2001-02-13, 00:35:00,VALID,916.968,VALID,0,VALID,96.9077,VALID,0,VALID,20.0394,VALID,86,VALID,0.76903,
2001-02-13, 00:36:00,VALID,916.962,VALID,0,VALID,96.8861,VALID,0.0169808,VALID,19.9977,VALID,94,VALID,0.709037,
2001-02-13, 00:37:00,VALID,916.934,VALID,0,VALID,97.0044,VALID,0,VALID,19.9843,VALID,93,VALID,0.0709821,
2001-02-13, 00:38:00,VALID,916.912,VALID,0,VALID,97.0629,VALID,0.0169808,VALID,19.978,VALID,94,VALID,0,
2001-02-13, 00:39:00,VALID,916.879,VALID,0,VALID,97.0984,VALID,0.0169808,VALID,19.9778,VALID,144,VALID,0.236064,
2001-02-13, 00:40:01,VALID,916.843,VALID,0,VALID,97.1404,VALID,-0.0169808,VALID,19.9783,VALID,131,VALID,0.336554,
2001-02-13, 00:41:00,VALID,916.825,VALID,0,VALID,97.1163,VALID,0,VALID,19.995,VALID,108,VALID,0.306377,
2001-02-13, 00:42:00,VALID,916.781,VALID,0,VALID,97.04,VALID,-0.0169808,VALID,19.9785,VALID,105,VALID,0.41875,
2001-02-13, 00:43:01,VALID,916.75,VALID,0,VALID,97.059,VALID,-0.0169808,VALID,19.9557,VALID,109,VALID,0.284054,
2001-02-13, 00:44:00,VALID,916.712,VALID,0,VALID,97.0539,VALID,-0.0169808,VALID,19.9661,VALID,101,VALID,0.560133,
2001-02-13, 00:45:00,VALID,916.692,VALID,0,VALID,96.9967,VALID,0.0169808,VALID,19.946,VALID,94,VALID,0.547794,
2001-02-13, 00:46:00,VALID,916.663,VALID,0,VALID,96.9853,VALID,0,VALID,19.9363,VALID,78,VALID,0.704181,
2001-02-13, 00:47:00,VALID,916.634,VALID,0,VALID,97.0768,VALID,-0.0169808,VALID,19.9495,VALID,85,VALID,0.602407,
2001-02-13, 00:48:00,VALID,916.626,VALID,0,VALID,97.0616,VALID,0,VALID,19.9425,VALID,95,VALID,0.594595,
2001-02-13, 00:49:00,VALID,916.626,VALID,0,VALID,97.0946,VALID,0,VALID,19.9497,VALID,99,VALID,0.435981,
2001-02-13, 00:50:00,VALID,916.642,VALID,0,VALID,97.1391,VALID,0.0339617,VALID,19.9425,VALID,99,VALID,0.0819311,
2001-02-13, 00:51:00,VALID,916.662,VALID,0,VALID,97.1709,VALID,0,VALID,19.9557,VALID,99,VALID,0,
2001-02-13, 00:52:00,VALID,916.68,VALID,0,VALID,97.2332,VALID,-0.0169808,VALID,19.9751,VALID,99,VALID,0,
2001-02-13, 00:53:00,VALID,916.689,VALID,0,VALID,97.2091,VALID,-0.0169808,VALID,19.978,VALID,100,VALID,0,
2001-02-13, 00:54:00,VALID,916.709,VALID,0,VALID,97.2358,VALID,0,VALID,19.9882,VALID,100,VALID,0,
2001-02-13, 00:55:01,VALID,916.716,VALID,0,VALID,97.2154,VALID,-0.0169808,VALID,19.9915,VALID,94,VALID,0.104441,
2001-02-13, 00:56:00,VALID,916.729,VALID,0,VALID,97.2053,VALID,-0.0169808,VALID,19.995,VALID,48,VALID,0.0498311,
2001-02-13, 00:57:00,VALID,916.733,VALID,0,VALID,97.2027,VALID,-0.0339617,VALID,19.9984,VALID,49,VALID,0,
2001-02-13, 00:58:01,VALID,916.737,VALID,0,VALID,97.0717,VALID,0,VALID,19.9845,VALID,50,VALID,0.106571,
2001-02-13, 00:59:01,VALID,916.739,VALID,0,VALID,96.9993,VALID,0,VALID,19.9654,VALID,52,VALID,0.271307,
2001-02-13, 01:00:00,VALID,916.733,VALID,0,VALID,97.0222,VALID,0,VALID,19.9621,VALID,82,VALID,0.3017,
2001-02-13, 01:01:00,VALID,916.72,VALID,0,VALID,97.0196,VALID,-0.0169808,VALID,19.9656,VALID,88,VALID,0.718961,
2001-02-13, 01:02:01,VALID,916.71,VALID,0,VALID,96.9039,VALID,0,VALID,19.9333,VALID,99,VALID,0.588682,
2001-02-13, 01:03:01,VALID,916.698,VALID,0,VALID,96.9675,VALID,0.0169808,VALID,19.9201,VALID,105,VALID,0.654139,
2001-02-13, 01:04:01,VALID,916.682,VALID,0,VALID,97.0921,VALID,0,VALID,19.9102,VALID,110,VALID,0.884549,
2001-02-13, 01:05:00,VALID,916.667,VALID,0,VALID,97.2231,VALID,0.0169808,VALID,19.9,VALID,103,VALID,0.772436,
2001-02-13, 01:06:01,VALID,916.674,VALID,0,VALID,97.3273,VALID,0,VALID,19.897,VALID,102,VALID,0.478885,
2001-02-13, 01:07:00,VALID,916.664,VALID,0,VALID,97.3464,VALID,-0.0169808,VALID,19.8985,VALID,112,VALID,0.31875,
2001-02-13, 01:08:00,VALID,916.67,VALID,0,VALID,97.4265,VALID,-0.0509425,VALID,19.8918,VALID,116,VALID,0.268092,
2001-02-13, 01:09:00,VALID,916.686,VALID,0,VALID,97.4799,VALID,-0.0849042,VALID,19.9018,VALID,117,VALID,0.0266047,
2001-02-13, 01:10:01,VALID,916.679,VALID,0,VALID,97.5066,VALID,-0.0849042,VALID,19.9077,VALID,117,VALID,0.0119243,
2001-02-13, 01:11:00,VALID,916.696,VALID,0,VALID,97.471,VALID,-0.0679233,VALID,19.9338,VALID,117,VALID,0,
2001-02-13, 01:12:00,VALID,916.702,VALID,0,VALID,97.3337,VALID,-0.0679233,VALID,19.9204,VALID,117,VALID,0,
2001-02-13, 01:13:01,VALID,916.718,VALID,0,VALID,97.2574,VALID,-0.0169808,VALID,19.9144,VALID,117,VALID,0,
2001-02-13, 01:14:01,VALID,916.719,VALID,0,VALID,97.2727,VALID,-0.0339617,VALID,19.9077,VALID,117,VALID,0,
2001-02-13, 01:15:01,VALID,916.714,VALID,0,VALID,97.2994,VALID,-0.0679233,VALID,19.9211,VALID,117,VALID,0,
2001-02-13, 01:16:01,VALID,916.706,VALID,0,VALID,97.335,VALID,-0.0169808,VALID,19.9475,VALID,117,VALID,0,
2001-02-13, 01:17:01,VALID,916.696,VALID,0,VALID,97.3604,VALID,-0.0509425,VALID,19.9567,VALID,117,VALID,0.0375845,
2001-02-13, 01:18:01,VALID,916.688,VALID,0,VALID,97.3998,VALID,-0.0509425,VALID,19.9661,VALID,117,VALID,0.0506757,
2001-02-13, 01:19:01,VALID,916.66,VALID,0,VALID,97.3757,VALID,-0.0169808,VALID,19.9718,VALID,116,VALID,0.327691,
2001-02-13, 01:20:01,VALID,916.642,VALID,0,VALID,97.2968,VALID,-0.0339617,VALID,19.9915,VALID,115,VALID,0.285457,
2001-02-13, 01:21:01,VALID,916.629,VALID,0,VALID,97.1658,VALID,-0.0339617,VALID,19.985,VALID,114,VALID,0.272593,
2001-02-13, 01:22:01,VALID,916.613,VALID,0,VALID,97.0832,VALID,-0.0679233,VALID,19.9793,VALID,102,VALID,0.511384,
2001-02-13, 01:23:01,VALID,916.625,VALID,0,VALID,97.0539,VALID,-0.0169808,VALID,19.9661,VALID,94,VALID,0.268092,
2001-02-13, 01:24:01,VALID,916.635,VALID,0,VALID,97.101,VALID,-0.0169808,VALID,19.9624,VALID,94,VALID,0.434122,
2001-02-13, 01:25:01,VALID,916.637,VALID,0,VALID,97.0984,VALID,-0.0169808,VALID,19.9594,VALID,94,VALID,0.2794,
2001-02-13, 01:26:01,VALID,916.639,VALID,0,VALID,97.1913,VALID,-0.0339617,VALID,19.9599,VALID,94,VALID,0.310811,
2001-02-13, 01:27:01,VALID,916.64,VALID,0,VALID,97.2638,VALID,-0.0509425,VALID,19.9664,VALID,103,VALID,0.434375,
2001-02-13, 01:28:01,VALID,916.622,VALID,0,VALID,97.2676,VALID,-0.0679233,VALID,19.953,VALID,148,VALID,0.258614,
2001-02-13, 01:29:01,VALID,916.61,VALID,0,VALID,97.3235,VALID,-0.0169808,VALID,19.9694,VALID,116,VALID,0.465436,
2001-02-13, 01:30:01,VALID,916.605,VALID,0,VALID,97.3579,VALID,-0.0169808,VALID,19.9753,VALID,117,VALID,0.223346,
2001-02-13, 01:31:01,VALID,916.61,VALID,0,VALID,97.3515,VALID,-0.0509425,VALID,19.9853,VALID,113,VALID,0,
2001-02-13, 01:32:01,VALID,916.603,VALID,0,VALID,97.3121,VALID,-0.0169808,VALID,19.9982,VALID,120,VALID,0,
2001-02-13, 01:33:01,VALID,916.594,VALID,0,VALID,97.2701,VALID,-0.0339617,VALID,20.0046,VALID,137,VALID,0.0709459,
2001-02-13, 01:34:01,VALID,916.593,VALID,0,VALID,97.232,VALID,-0.0339617,VALID,20.0148,VALID,123,VALID,0.389106,
2001-02-13, 01:35:00,VALID,916.58,VALID,0,VALID,97.1798,VALID,-0.0339617,VALID,20.0151,VALID,105,VALID,0.626402,
2001-02-13, 01:36:00,VALID,916.548,VALID,0,VALID,97.0489,VALID,-0.0509425,VALID,19.9855,VALID,88,VALID,1.00528,
2001-02-13, 01:37:00,VALID,916.526,VALID,0,VALID,96.937,VALID,-0.0339617,VALID,19.9562,VALID,80,VALID,1.09866,
2001-02-13, 01:38:00,VALID,916.496,VALID,0,VALID,96.9103,VALID,-0.0679233,VALID,19.9371,VALID,90,VALID,0.947163,
2001-02-13, 01:39:00,VALID,916.468,VALID,0,VALID,96.8836,VALID,-0.0339617,VALID,19.9204,VALID,90,VALID,1.00992,
2001-02-13, 01:40:00,VALID,916.454,VALID,0,VALID,96.9382,VALID,-0.0509425,VALID,19.9077,VALID,93,VALID,1.16406,
2001-02-13, 01:41:00,VALID,916.436,VALID,0,VALID,97.0107,VALID,0,VALID,19.9241,VALID,83,VALID,1.08953,
2001-02-13, 01:42:00,VALID,916.421,VALID,0,VALID,97.1112,VALID,-0.0339617,VALID,19.8846,VALID,82,VALID,1.0529,
2001-02-13, 01:43:00,VALID,916.406,VALID,0,VALID,97.2205,VALID,-0.0339617,VALID,19.8849,VALID,80,VALID,0.988381,
2001-02-13, 01:44:00,VALID,916.397,VALID,0,VALID,97.3045,VALID,-0.0169808,VALID,19.8824,VALID,83,VALID,1.17779,
2001-02-13, 01:45:00,VALID,916.397,VALID,0,VALID,97.382,VALID,-0.0339617,VALID,19.8759,VALID,87,VALID,1.02252,
2001-02-13, 01:46:00,VALID,916.377,VALID,0,VALID,97.4647,VALID,-0.101885,VALID,19.8662,VALID,78,VALID,1.18201,
2001-02-13, 01:47:00,VALID,916.384,VALID,0,VALID,97.5753,VALID,-0.0339617,VALID,19.8595,VALID,75,VALID,1.23438,
2001-02-13, 01:48:00,VALID,916.374,VALID,0,VALID,97.6503,VALID,-0.0509425,VALID,19.8434,VALID,82,VALID,1.34248,
2001-02-13, 01:49:00,VALID,916.378,VALID,0,VALID,97.7393,VALID,-0.0339617,VALID,19.8371,VALID,66,VALID,1.12782,
2001-02-13, 01:50:00,VALID,916.364,VALID,0,VALID,97.7864,VALID,-0.0849042,VALID,19.8078,VALID,70,VALID,1.12179,
2001-02-13, 01:51:00,VALID,916.377,VALID,0,VALID,97.8716,VALID,-0.0169808,VALID,19.7984,VALID,80,VALID,1.1136,
2001-02-13, 01:52:00,VALID,916.373,VALID,0,VALID,97.967,VALID,-0.0509425,VALID,19.7884,VALID,79,VALID,1.06406,
2001-02-13, 01:53:00,VALID,916.377,VALID,0,VALID,97.9822,VALID,-0.0169808,VALID,19.7723,VALID,83,VALID,1.1139,
2001-02-13, 01:54:00,VALID,916.372,VALID,0,VALID,98.0115,VALID,-0.0509425,VALID,19.7591,VALID,87,VALID,0.917863,
2001-02-13, 01:55:00,VALID,916.351,VALID,0,VALID,98.0445,VALID,-0.0339617,VALID,19.7524,VALID,77,VALID,0.855263,
2001-02-13, 01:56:00,VALID,916.341,VALID,0,VALID,98.0433,VALID,-0.0339617,VALID,19.7432,VALID,69,VALID,1.01267,
2001-02-13, 01:57:00,VALID,916.325,VALID,0,VALID,98.07,VALID,-0.0339617,VALID,19.7236,VALID,79,VALID,0.946205,
2001-02-13, 01:58:00,VALID,916.312,VALID,0,VALID,98.1081,VALID,-0.0339617,VALID,19.7278,VALID,94,VALID,1.17388,
2001-02-13, 01:59:00,VALID,916.293,VALID,0,VALID,98.1335,VALID,-0.0339617,VALID,19.7308,VALID,82,VALID,1.22372,
2001-02-13, 02:00:00,VALID,916.275,VALID,0,VALID,98.1539,VALID,-0.0509425,VALID,19.7305,VALID,87,VALID,1.06985,
2001-02-13, 02:01:00,VALID,916.279,VALID,0,VALID,98.1653,VALID,-0.0509425,VALID,19.7435,VALID,91,VALID,0.903505,
2001-02-13, 02:02:00,VALID,916.256,VALID,0,VALID,98.1666,VALID,-0.0339617,VALID,19.7464,VALID,79,VALID,1.09396,
2001-02-13, 02:03:00,VALID,916.254,VALID,0,VALID,98.1513,VALID,-0.0339617,VALID,19.7532,VALID,66,VALID,1.17736,
2001-02-13, 02:04:00,VALID,916.231,VALID,0,VALID,98.1132,VALID,-0.0679233,VALID,19.7596,VALID,83,VALID,1.16385,
2001-02-13, 02:05:00,VALID,916.22,VALID,0,VALID,98.0878,VALID,-0.101885,VALID,19.7499,VALID,89,VALID,0.895032,
2001-02-13, 02:06:00,VALID,916.233,VALID,0,VALID,98.0941,VALID,-0.0509425,VALID,19.7663,VALID,83,VALID,0.76837,
2001-02-13, 02:07:00,VALID,916.226,VALID,0,VALID,98.1106,VALID,-0.0509425,VALID,19.7728,VALID,76,VALID,1.10335,
2001-02-13, 02:08:00,VALID,916.229,VALID,0,VALID,98.1145,VALID,0,VALID,19.7683,VALID,91,VALID,1.05099,
2001-02-13, 02:09:00,VALID,916.235,VALID,0,VALID,98.1068,VALID,0.0339617,VALID,19.7815,VALID,95,VALID,0.781461,
2001-02-13, 02:10:00,VALID,916.241,VALID,0,VALID,98.0916,VALID,0,VALID,19.7909,VALID,84,VALID,0.745066,
2001-02-13, 02:11:00,VALID,916.236,VALID,0,VALID,98.056,VALID,0,VALID,19.7909,VALID,90,VALID,1.17546,
2001-02-13, 02:12:00,VALID,916.231,VALID,0,VALID,98.0318,VALID,0.0169808,VALID,19.8073,VALID,77,VALID,0.877455,
2001-02-13, 02:13:00,VALID,916.244,VALID,0,VALID,98,VALID,0.0509425,VALID,19.7939,VALID,87,VALID,1.13221,
2001-02-13, 02:14:00,VALID,916.262,VALID,0,VALID,98.0115,VALID,0.0509425,VALID,19.8073,VALID,52,VALID,0.305634,
2001-02-13, 02:15:00,VALID,916.272,VALID,0,VALID,98.0115,VALID,0.0509425,VALID,19.8009,VALID,4,VALID,0.292279,
2001-02-13, 02:16:00,VALID,916.29,VALID,0,VALID,98.0013,VALID,0,VALID,19.8038,VALID,76,VALID,0.0485642,
2001-02-13, 02:17:00,VALID,916.3,VALID,0,VALID,97.9987,VALID,0.0169808,VALID,19.8135,VALID,101,VALID,0.0599662,
2001-02-13, 02:18:00,VALID,916.293,VALID,0,VALID,98,VALID,0.0169808,VALID,19.8227,VALID,96,VALID,0,
2001-02-13, 02:19:00,VALID,916.297,VALID,0,VALID,97.986,VALID,0.0169808,VALID,19.8332,VALID,96,VALID,0,
2001-02-13, 02:20:00,VALID,916.282,VALID,0,VALID,97.9797,VALID,0.0169808,VALID,19.8359,VALID,99,VALID,0,
2001-02-13, 02:21:00,VALID,916.279,VALID,0,VALID,97.9517,VALID,0.0169808,VALID,19.8583,VALID,100,VALID,0,
2001-02-13, 02:22:00,VALID,916.284,VALID,0,VALID,97.9479,VALID,0.0339617,VALID,19.865,VALID,100,VALID,0,
2001-02-13, 02:23:00,VALID,916.282,VALID,0,VALID,97.9046,VALID,0,VALID,19.8781,VALID,100,VALID,0,
2001-02-13, 02:24:00,VALID,916.27,VALID,0,VALID,97.8996,VALID,0.0169808,VALID,19.8916,VALID,100,VALID,0,
2001-02-13, 02:25:00,VALID,916.262,VALID,0,VALID,97.8818,VALID,0.0169808,VALID,19.8943,VALID,100,VALID,0,
2001-02-13, 02:26:00,VALID,916.267,VALID,0,VALID,97.8627,VALID,0,VALID,19.9177,VALID,100,VALID,0,
2001-02-13, 02:27:00,VALID,916.252,VALID,0,VALID,97.8309,VALID,0.0509425,VALID,19.897,VALID,100,VALID,0,
2001-02-13, 02:28:00,VALID,916.264,VALID,0,VALID,97.7889,VALID,0,VALID,19.9008,VALID,100,VALID,0,
2001-02-13, 02:29:00,VALID,916.261,VALID,0,VALID,97.7686,VALID,0.0169808,VALID,19.9075,VALID,100,VALID,0,
2001-02-13, 02:30:00,VALID,916.251,VALID,0,VALID,97.7915,VALID,0.0169808,VALID,19.9008,VALID,112,VALID,0,
2001-02-13, 02:31:00,VALID,916.251,VALID,0,VALID,97.8029,VALID,0.0509425,VALID,19.9072,VALID,116,VALID,0,
2001-02-13, 02:32:00,VALID,916.241,VALID,0,VALID,97.8131,VALID,0.0169808,VALID,19.9172,VALID,116,VALID,0,
2001-02-13, 02:33:00,VALID,916.244,VALID,0,VALID,97.8309,VALID,0.0169808,VALID,19.9331,VALID,116,VALID,0,
2001-02-13, 02:34:00,VALID,916.233,VALID,0,VALID,97.8055,VALID,0.0169808,VALID,19.9331,VALID,116,VALID,0,
2001-02-13, 02:35:00,VALID,916.227,VALID,0,VALID,97.7788,VALID,0.0509425,VALID,19.9331,VALID,116,VALID,0,
2001-02-13, 02:36:00,VALID,916.224,VALID,0,VALID,97.7432,VALID,0.0169808,VALID,19.9298,VALID,116,VALID,0,
2001-02-13, 02:37:00,VALID,916.226,VALID,0,VALID,97.7457,VALID,0,VALID,19.9298,VALID,116,VALID,0,
2001-02-13, 02:38:00,VALID,916.21,VALID,0,VALID,97.766,VALID,-0.0509425,VALID,19.9343,VALID,116,VALID,0,
2001-02-13, 02:39:00,VALID,916.202,VALID,0,VALID,97.7571,VALID,-0.0849042,VALID,19.9612,VALID,116,VALID,0,
2001-02-13, 02:40:00,VALID,916.19,VALID,0,VALID,97.7381,VALID,-0.101885,VALID,19.9674,VALID,116,VALID,0,
2001-02-13, 02:41:00,VALID,916.187,VALID,0,VALID,97.6783,VALID,-0.0849042,VALID,19.9637,VALID,116,VALID,0,
2001-02-13, 02:42:00,VALID,916.165,VALID,0,VALID,97.6389,VALID,-0.101885,VALID,19.9639,VALID,116,VALID,0,
2001-02-13, 02:43:00,VALID,916.149,VALID,0,VALID,97.6007,VALID,-0.0679233,VALID,19.9477,VALID,116,VALID,0,
2001-02-13, 02:44:00,VALID,916.145,VALID,0,VALID,97.6084,VALID,-0.101885,VALID,19.9348,VALID,116,VALID,0,
2001-02-13, 02:45:00,VALID,916.134,VALID,0,VALID,97.5918,VALID,-0.0679233,VALID,19.9246,VALID,116,VALID,0,
2001-02-13, 02:46:00,VALID,916.128,VALID,0,VALID,97.5906,VALID,-0.0679233,VALID,19.9316,VALID,116,VALID,0,
2001-02-13, 02:47:00,VALID,916.099,VALID,0,VALID,97.6313,VALID,-0.0849042,VALID,19.9211,VALID,116,VALID,0,
2001-02-13, 02:48:00,VALID,916.085,VALID,0,VALID,97.6605,VALID,-0.0849042,VALID,19.9279,VALID,116,VALID,0,
2001-02-13, 02:49:00,VALID,916.058,VALID,0,VALID,97.6516,VALID,-0.0679233,VALID,19.9373,VALID,115,VALID,0,
2001-02-13, 02:50:00,VALID,916.041,VALID,0,VALID,97.6274,VALID,-0.0849042,VALID,19.9341,VALID,109,VALID,0,
2001-02-13, 02:51:00,VALID,916.033,VALID,0,VALID,97.6338,VALID,-0.0509425,VALID,19.951,VALID,106,VALID,0,
2001-02-13, 02:52:00,VALID,916.02,VALID,0,VALID,97.6452,VALID,-0.101885,VALID,19.954,VALID,103,VALID,0,
2001-02-13, 02:53:00,VALID,916.017,VALID,0,VALID,97.4748,VALID,-0.0679233,VALID,19.9311,VALID,74,VALID,0,
2001-02-13, 02:54:00,VALID,916.005,VALID,0,VALID,97.3388,VALID,-0.101885,VALID,19.9057,VALID,100,VALID,0.250211,
2001-02-13, 02:55:00,VALID,916,VALID,0,VALID,97.3858,VALID,-0.0849042,VALID,19.9122,VALID,101,VALID,0.491776,
2001-02-13, 02:56:00,VALID,915.982,VALID,0,VALID,97.3388,VALID,-0.0679233,VALID,19.9023,VALID,98,VALID,0.580025,
2001-02-13, 02:57:00,VALID,915.964,VALID,0,VALID,97.335,VALID,-0.101885,VALID,19.8891,VALID,100,VALID,0.862277,
2001-02-13, 02:58:00,VALID,915.952,VALID,0,VALID,97.293,VALID,-0.0339617,VALID,19.8926,VALID,102,VALID,0.942909,
2001-02-13, 02:59:00,VALID,915.945,VALID,0,VALID,97.2892,VALID,-0.101885,VALID,19.8921,VALID,104,VALID,0.743134,
2001-02-13, 03:00:00,VALID,915.935,VALID,0,VALID,97.1569,VALID,-0.0849042,VALID,19.8732,VALID,93,VALID,0.553079,
2001-02-13, 03:01:00,VALID,915.914,VALID,0,VALID,97.0438,VALID,-0.101885,VALID,19.8568,VALID,98,VALID,0.296453,
2001-02-13, 03:02:00,VALID,915.913,VALID,0,VALID,97.0069,VALID,-0.0849042,VALID,19.8575,VALID,97,VALID,0.124789,
2001-02-13, 03:03:00,VALID,915.906,VALID,0,VALID,97.0679,VALID,-0.101885,VALID,19.8635,VALID,97,VALID,0,
2001-02-13, 03:04:00,VALID,915.88,VALID,0,VALID,97.1048,VALID,-0.0679233,VALID,19.8692,VALID,97,VALID,0.203559,
2001-02-13, 03:05:00,VALID,915.848,VALID,0,VALID,97.1519,VALID,-0.0849042,VALID,19.8794,VALID,96,VALID,0.430288,
2001-02-13, 03:06:00,VALID,915.835,VALID,0,VALID,97.1061,VALID,-0.0509425,VALID,19.8727,VALID,95,VALID,0.448057,
2001-02-13, 03:07:00,VALID,915.807,VALID,0,VALID,97.0031,VALID,-0.0679233,VALID,19.8598,VALID,93,VALID,0.620313,
2001-02-13, 03:08:00,VALID,915.791,VALID,0,VALID,96.9598,VALID,-0.0509425,VALID,19.8493,VALID,95,VALID,0.39926,
2001-02-13, 03:09:00,VALID,915.77,VALID,0,VALID,96.9865,VALID,-0.0509425,VALID,19.8366,VALID,95,VALID,0.449747,
2001-02-13, 03:10:00,VALID,915.741,VALID,0,VALID,96.9764,VALID,-0.0339617,VALID,19.8304,VALID,96,VALID,0.307566,
2001-02-13, 03:11:00,VALID,915.727,VALID,0,VALID,96.9509,VALID,-0.0169808,VALID,19.8173,VALID,82,VALID,0.230997,
2001-02-13, 03:12:00,VALID,915.728,VALID,0,VALID,96.9204,VALID,0,VALID,19.7912,VALID,62,VALID,0.157813,
2001-02-13, 03:13:00,VALID,915.727,VALID,0,VALID,96.923,VALID,-0.0509425,VALID,19.7984,VALID,67,VALID,0.171274,
2001-02-13, 03:14:00,VALID,915.746,VALID,0,VALID,96.9064,VALID,-0.0679233,VALID,19.7852,VALID,67,VALID,0.0494792,
2001-02-13, 03:15:00,VALID,915.744,VALID,0,VALID,96.9484,VALID,-0.101885,VALID,19.7852,VALID,67,VALID,0.000919118,
2001-02-13, 03:16:00,VALID,915.761,VALID,0,VALID,96.8988,VALID,-0.0679233,VALID,19.7817,VALID,67,VALID,0.000844595,
2001-02-13, 03:17:00,VALID,915.759,VALID,0,VALID,96.8289,VALID,0,VALID,19.7688,VALID,67,VALID,0.0386402,
2001-02-13, 03:18:00,VALID,915.757,VALID,0,VALID,96.8251,VALID,-0.0169808,VALID,19.7661,VALID,67,VALID,0,
2001-02-13, 03:19:00,VALID,915.753,VALID,0,VALID,96.8797,VALID,-0.0339617,VALID,19.7658,VALID,67,VALID,0,
2001-02-13, 03:20:00,VALID,915.751,VALID,0,VALID,96.9255,VALID,-0.0169808,VALID,19.7584,VALID,67,VALID,0,
2001-02-13, 03:21:00,VALID,915.742,VALID,0,VALID,96.9726,VALID,0,VALID,19.7589,VALID,67,VALID,0,
2001-02-13, 03:22:00,VALID,915.745,VALID,0,VALID,97.04,VALID,-0.0339617,VALID,19.7758,VALID,67,VALID,0,
2001-02-13, 03:23:00,VALID,915.741,VALID,0,VALID,97.0768,VALID,-0.0169808,VALID,19.7591,VALID,67,VALID,0,
2001-02-13, 03:24:00,VALID,915.739,VALID,0,VALID,97.143,VALID,-0.0509425,VALID,19.7489,VALID,67,VALID,0,
2001-02-13, 03:25:00,VALID,915.734,VALID,0,VALID,97.2053,VALID,-0.0339617,VALID,19.7653,VALID,67,VALID,0,
2001-02-13, 03:26:00,VALID,915.716,VALID,0,VALID,97.2421,VALID,-0.0169808,VALID,19.7653,VALID,67,VALID,0,
2001-02-13, 03:27:00,VALID,915.712,VALID,0,VALID,97.279,VALID,-0.0509425,VALID,19.7787,VALID,67,VALID,0,
2001-02-13, 03:28:00,VALID,915.699,VALID,0,VALID,97.3057,VALID,-0.0509425,VALID,19.7753,VALID,67,VALID,0,
2001-02-13, 03:29:00,VALID,915.687,VALID,0,VALID,97.2688,VALID,-0.0849042,VALID,19.7559,VALID,67,VALID,0,
2001-02-13, 03:30:00,VALID,915.667,VALID,0,VALID,97.1722,VALID,-0.0339617,VALID,19.7469,VALID,67,VALID,0,
2001-02-13, 03:31:00,VALID,915.656,VALID,0,VALID,97.1124,VALID,-0.0169808,VALID,19.7335,VALID,67,VALID,0,
2001-02-13, 03:32:00,VALID,915.656,VALID,0,VALID,97.0807,VALID,-0.0679233,VALID,19.733,VALID,67,VALID,0,
2001-02-13, 03:33:00,VALID,915.637,VALID,0,VALID,97.0311,VALID,0,VALID,19.7303,VALID,67,VALID,0,
2001-02-13, 03:34:00,VALID,915.64,VALID,0,VALID,96.9548,VALID,-0.0679233,VALID,19.7144,VALID,67,VALID,0,
2001-02-13, 03:35:00,VALID,915.634,VALID,0,VALID,96.7335,VALID,-0.0679233,VALID,19.695,VALID,67,VALID,0,
2001-02-13, 03:36:00,VALID,915.626,VALID,0,VALID,96.6826,VALID,-0.0679233,VALID,19.6985,VALID,67,VALID,0,